Regional Weather Roundup
Issued by NWS

Home | Current Version | Previous Version | Graphics & Text | Print | Product List | Glossary On
Versions: 1 2 3 4 5 6 7 8 9 10 11 12 13 14 15 16 17 18 19 20 21 22 23 24 25 26 27 28 29 30 31 32 33 34 35 36 37 38 39 40 41 42 43 44 45 46 47 48 49 50
000
ASUS45 KSLC 310010
RWRUT

UTAH REGIONAL WEATHER ROUNDUP
NATIONAL WEATHER SERVICE SALT LAKE CITY UT
600 PM MDT THU JUL 30 2015

UTZ001>011-023>025-310100-

NORTHERN UTAH

CITY           SKY/WX    TMP DP  RH WIND       PRES   REMARKS
BRIGHAM CITY   SUNNY     91  11   5 S3        30.22F
HILL AFB       SUNNY     89  23   9 NW7       30.26F
LOGAN          SUNNY     90  24   9 VRB3      30.23F
OGDEN          SUNNY     89  22   8 W7        30.23F
PROVO AIRPORT  MOSUNNY   91  36  14 NW13      30.22F
SALT LAKE CITY MOSUNNY   92  24   8 N10G20    30.20F
VERNAL         SUNNY     89   8   5 SE7       30.23F
WENDOVER       NOT AVBL
HEBER CITY     SUNNY     88  19   8 N13       30.29F
WEST JORDAN    SUNNY     90  34  13 N12G20    30.24F

$$

UTZ012>022-026-027-310100-

SOUTHERN/CENTRAL UTAH

CITY           SKY/WX    TMP DP  RH WIND       PRES   REMARKS
BLANDING       MOSUNNY   86  39  18 W6        30.34S
BRYCE CANYON   PTSUNNY   84  33  16 NW3       30.42S
CEDAR CITY     PTSUNNY   90  23   9 CALM      30.22F
DELTA          SUNNY     94  21   7 NW13      30.20F
HANKSVILLE     MOSUNNY   97  25   7 SE5       30.15F HX  90
MILFORD        SUNNY     96  35  11 N15       30.18F HX  91
MOAB/CYNLANDS  SUNNY     96  18   6 NW10G16   30.13F
PRICE          SUNNY     93   8   4 NW12      30.27F
ST GEORGE      CLEAR     95  46  18 S23       30.03S HX  91

$$

REGIONAL REPORTS     COLORADO/ARIZONA

CITY           SKY/WX    TMP DP  RH WIND       PRES   REMARKS
CRAIG, CO      SUNNY     88  17   7 CALM      30.30F
GRAND JUNCTION SUNNY     93  23   8 SW10      30.16F
RIFLE          SUNNY     92  25   9 NE3       30.21F
MONTROSE       SUNNY     90  29  11 NW8       30.25F
CORTEZ         LGT RAIN  74  52  46 NW12      30.28F
PAGE, AZ       PTSUNNY   94  39  14 SE7       30.13F HX  90
GRAND CANYON   CLOUDY    78  45  30 E8        30.36F
KINGMAN        CLOUDY    80  59  48 S9        30.13R
FLAGSTAFF      CLOUDY    69  60  73 W3        30.39F

$$

REGIONAL REPORTS    NEVADA/IDAHO/WYOMING

CITY           SKY/WX    TMP DP  RH WIND       PRES   REMARKS
LAS VEGAS, NV  PTSUNNY  103  44  13 CALM      29.92S HX  98
ELY            MOSUNNY   91  20   7 N7        30.29F
ELKO           SUNNY     95  15   5 VRB7      30.23F
POCATELLO, ID  SUNNY     89  24   9 VRB5      30.25F
BURLEY         SUNNY     90  33  13 CALM      30.20F
EVANSTON, WY   SUNNY     82  18   9 W9G24     30.42S
ROCK SPRINGS   SUNNY     82  21  10 VRB5      30.38S
KEMMERER       SUNNY     79  19  11 NW5G20    30.44F

$$


USA.gov is the U.S. government's official web portal to all federal, state and local government web resources and services.